Deering, AK

3:48 AM AKDT on May 23, 2017 (GMT -0800)
Deering (New)

Weather History for PADE - October, 2012

Change the Weather History Date:

Sunday, October 7, 2012

  Actual Average (PAOT) Record (PAOT)
Temperature  
Mean Temperature 34 °F -  
Max Temperature 37 °F 35 °F 50 °F (1969)
Min Temperature 30 °F 26 °F 9 °F (1960)
Degree Days  
Heating Degree Days 32    
Moisture  
Dew Point 30 °F    
Average Humidity 83    
Maximum Humidity 93    
Minimum Humidity 75    
Precipitation  
Precipitation 0.00 in - - ()
Sea Level Pressure  
Sea Level Pressure 30.19 in    
Wind  
Wind Speed 12 mph (WSW)    
Max Wind Speed 16 mph    
Max Gust Speed -    
Visibility 10 miles    
Events Rain , Snow    
Averages and records for this station are not official NWS values.
T = Trace of Precipitation, MM = Missing Value Source: NWS Daily Summary

Daily Weather History Graph

Daily Weather History Graph

Search for Another Location

Airport or City:

Trip Planner

Search our weather history database for the weather conditions in past years. The results will help you decide how hot, cold, wet, or windy it might be!

Date:

Astronomy

Oct. 07, 2012 Rise Set
Actual Time 9:23 AM AKDT 7:52 PM AKDT
Civil Twilight 8:32 AM AKDT 8:43 PM AKDT
Nautical Twilight 7:32 AM AKDT 9:42 PM AKDT
Astronomical Twilight 6:28 AM AKDT 10:45 PM AKDT
Moon 11:28 PM AKDT (10/7) 6:00 PM AKDT (10/7)
Length of Visible Light 12h 11m
Length of Day
10h 28m
Waning Gibbous, 55% of the Moon is Illuminated
Oct 7
Waning Gibbous
Oct 7
Last Quarter
Oct 15
New
Oct 21
First Quarter
Oct 29
Full

Hourly Weather History & Observations

Time (AKDT) Temp. Windchill Dew Point Humidity Pressure Visibility Wind Dir Wind Speed Gust Speed Precip Events Conditions
12:53 AM 37.0 °F 27.7 °F 30.9 °F 79% 30.01 in 10.0 mi South 16.1 mph - N/A   Mostly Cloudy
1:53 AM 37.0 °F 28.9 °F 30.0 °F 76% 30.03 in 10.0 mi SSW 12.7 mph - N/A   Mostly Cloudy
2:53 AM 35.1 °F 26.4 °F 30.9 °F 85% 30.06 in 10.0 mi SSW 12.7 mph - N/A   Overcast
3:40 AM 35.6 °F 29.2 °F 30.2 °F 81% 30.08 in 10.0 mi South 8.1 mph - N/A   Overcast
3:53 AM 35.1 °F 29.3 °F 30.9 °F 85% 30.09 in 10.0 mi South 6.9 mph - N/A   Overcast
4:21 AM 35.6 °F 28.6 °F 32.0 °F 87% 30.09 in 10.0 mi South 9.2 mph - N/A   Overcast
4:53 AM 35.1 °F 26.9 °F 30.9 °F 85% 30.10 in 10.0 mi South 11.5 mph - N/A   Overcast
5:53 AM 33.1 °F 26.1 °F 30.0 °F 89% 30.13 in 10.0 mi SSW 8.1 mph - N/A   Scattered Clouds
6:53 AM 32.0 °F 23.6 °F 28.0 °F 85% 30.14 in 10.0 mi SW 10.4 mph - N/A   Mostly Cloudy
7:22 AM 30.2 °F 21.9 °F 28.4 °F 93% 30.15 in 10.0 mi SSW 9.2 mph - N/A   Mostly Cloudy
7:53 AM 32.0 °F 23.6 °F 28.9 °F 88% 30.16 in 10.0 mi SSW 10.4 mph - N/A   Overcast
8:53 AM 33.1 °F 24.4 °F 28.0 °F 82% 30.17 in 10.0 mi South 11.5 mph - N/A   Overcast
9:53 AM 33.1 °F 24.4 °F 28.0 °F 82% 30.19 in 10.0 mi SW 11.5 mph - N/A   Overcast
10:07 AM 33.8 °F 25.3 °F 28.4 °F 81% 30.19 in 10.0 mi SW 11.5 mph - N/A   Overcast
10:53 AM 34.0 °F 23.8 °F 30.0 °F 85% 30.20 in 10.0 mi WSW 16.1 mph - N/A   Overcast
11:39 AM 35.6 °F 27.1 °F 30.2 °F 81% 30.22 in 10.0 mi WSW 12.7 mph - N/A   Overcast
11:53 AM 35.1 °F 26.4 °F 32.0 °F 89% 30.23 in 10.0 mi SW 12.7 mph - N/A   Overcast
12:53 PM 36.0 °F 27.1 °F 32.0 °F 86% 30.24 in 7.0 mi WSW 13.8 mph - N/A   Overcast
1:12 PM 35.6 °F 26.6 °F 32.0 °F 87% 30.24 in 10.0 mi WSW 13.8 mph - N/A   Overcast
1:53 PM 37.0 °F 27.7 °F 30.9 °F 79% 30.25 in 10.0 mi West 16.1 mph - N/A   Overcast
2:13 PM 37.4 °F 28.9 °F 30.2 °F 75% 30.25 in 10.0 mi West 13.8 mph - N/A   Mostly Cloudy
2:53 PM 37.0 °F 29.8 °F 30.9 °F 79% 30.26 in 10.0 mi West 10.4 mph - N/A   Overcast
3:53 PM 37.9 °F 30.0 °F 30.9 °F 76% 30.26 in 10.0 mi West 12.7 mph - 0.00 in   Mostly Cloudy
4:53 PM 37.0 °F 29.3 °F 30.0 °F 76% 30.25 in 10.0 mi West 11.5 mph - 0.00 in   Mostly Cloudy
5:14 PM 37.4 °F 29.3 °F 30.2 °F 75% 30.25 in 10.0 mi West 12.7 mph - N/A   Scattered Clouds
5:21 PM 37.4 °F 28.9 °F 30.2 °F 75% 30.25 in 9.0 mi WNW 13.8 mph - N/A   Mostly Cloudy
5:53 PM 37.0 °F 29.3 °F 30.9 °F 79% 30.25 in 10.0 mi WNW 11.5 mph - 0.00 in   Mostly Cloudy
6:53 PM 36.0 °F 28.5 °F 30.0 °F 79% 30.26 in 10.0 mi West 10.4 mph - N/A   Mostly Cloudy
7:53 PM 34.0 °F 26.6 °F 30.9 °F 89% 30.27 in 5.0 mi West 9.2 mph - 0.00 in Rain Light Rain
8:53 PM 34.0 °F 28.0 °F 30.9 °F 89% 30.28 in 8.0 mi WNW 6.9 mph - 0.00 in Snow Light Snow
9:53 PM 35.1 °F 27.9 °F 30.9 °F 85% 30.28 in 10.0 mi West 9.2 mph - 0.00 in   Overcast
10:53 PM 35.1 °F 26.9 °F 30.9 °F 85% 30.29 in 10.0 mi West 11.5 mph - N/A   Overcast
11:53 PM 33.1 °F 24.4 °F 30.0 °F 89% 30.30 in 10.0 mi WSW 11.5 mph - N/A   Overcast